User: anonymous   Login
Location: Unspecified
(0.0000°N, 0.0000°E)
Time: 11:56:58
(UTC+01:00)
Language:

ATLAS V CENTAUR R/B - Orbit

View from above orbital plane
View from above orbital plane
View from above satellite
View from above satellite

Ground track
Ground track

The orbit data is extracted from the following two-line orbital elements,

1 27500U 02038B   15059.73460010  .00021188  00000-0  36155-2 0  9990
2 27500 017.9533 142.2104 6915836 215.4145 036.3286 02.76191933101818
Epoch (UTC): 28 February 2015 17:37:49
Eccentricity: 0.6915836
inclination: 17.9533°
perigee height: 240 km
apogee height: 29920 km
right ascension of ascending node: 142.2104°
argument of perigee: 215.4145°
revolutions per day: 2.76191933
mean anomaly at epoch: 36.3286°
orbit number at epoch: 10181

The dashed part of the orbit path shows where the satellite is in the earth's shadow,  

DLR